Find Starlink 30882

NORAD ID: 58379 Int'l Des: 2023-178 Owner: SPXS Country: US Constellation: starlink operational
LEOCIRCULAR

当前视图

正在加载3D地球...

About Starlink 30882

Starlink 30882 (NORAD 58379) is a starlink constellation satellite (v2 mini) launched Nov 20, 2023 by SPXS of US. It operates in LEO, CIRCULAR orbit with a mass of 730.00 kg.

即将过境

Passes for default location (London). Set your location on the main map for personalized predictions.

高度历史

Loading altitude history...

两行轨道根数

1 58379U 23178F 26235.59770322 .00007987 00000-0 24728-3 0 9993
2 58379 53.1615 302.4146 0000885 68.3923 291.7174 15.34396372155495
Epoch: Aug 23, 2026 • Age: 16 hours

当前状态

高度 467.7 km
远地点 / 近地点 N/A
速度 7.64 km/s
星下点 48.96°N, 68.59°W
发射日期 Nov 20, 2023
运行时间 2.7 years
类型 internet

技术详情

分类 Payload
质量 730.00 kg
干质量 700.00 kg
总质量 730.00 kg
长度 0.30 m
直径 4.10 m
跨度 29.00 m
形状 Box + pan
制造商 SPXS
平台类型 Starlink V2M
阶段状态 In Orbit
所有者/国家 SPXS/US

Most Searched